{"data":{"norad_id":68623,"epoch":"2026-09-19T22:49:33.254112Z","epoch_age_seconds":91579,"freshness":"FRESH","line1":"1 68623U 26073X   26262.95107933  .00008888  00000+0  27717-3 0  9996","line2":"2 68623  97.2856 100.9348 0001349  70.9369 289.2020 15.33462167 25659","mean_motion":15.33462167,"eccentricity":0.0001349,"inclination_deg":97.2856,"raan_deg":100.9348,"arg_perigee_deg":70.9369,"mean_anomaly_deg":289.202,"bstar":0.00027717,"rev_number":2565,"period_min":93.905153383546,"perigee_km":464.56889247532,"apogee_km":466.41530360597,"semimajor_km":6843.6290980406,"source":"CELESTRAK","updated_at":"2026-09-20T09:00:43.947832Z"}}